SCP
0 0 0 0 0 0 0 0 0 0 0 0 0 0 0 0 0 0 0 0 0 0 0 0 0 0 0 0 0 0 0 0 0 0 0 0 0 0 0 0 0 0 0 0
0 0 0 0 0 0 0 0 0 0 0 0 0 0 0 0 0 0 0 0 0 0 0 0 0 0 0 0 0 0 0 0 0 0 0 0 0 0 0 0 0 0 0 0
0 0 0 0 0 0 0 0 0 0 0 0 0 0 0 0 0 0 0 0 0 0 0 0 0 0 0 0 0 0 0 0 0 0 0 0 0 0 0 0 0 0 0 0
0 0 0 0 0 0 0 0 0 0 0 0 0 0 0 0 0 0 0 0 0 0 0 0 0 0 0 0 0 0 0 0 0 0 0 0 0 0 0 0 0 0 0 0
0 0 0 0 0 0 0 0 0 0 0 0 0 0 0 0 0 0 0 0 0 0 0 0 0 0 0 0 0 0 0 0 0 0 0 0 0 0 0 0 0 0 0 0
0 0 0 0 0 0 0 0 0 0 0 0 0 0 0 0 0 0 0 0 0 0 0 0 0 0 0 0 0 0 0 0 0 0 0 0 0 0 0 0 0 0 0 0
0 0 0 0 0 0 0 0 0 0 0 0 0 0 0 0 0 0 0 0 0 0 0 0 0 0 0 0 0 0 0 0 0 0 0 0 0 0 0 0 0 0 0 0
0 0 0 0 0 0 0 0 0 0 0 0 0 0 0 0 0 0 0 0 0 0 0 0 0 0 0 0 0 0 0 0 0 0 0 0 0 0 0 0 0 0 0 0
0 0 0 0 0 0 0 0 0 0 0 0 0 0 0 0 0 0 0 0 0 0 0 0 0 0 0 0 0 0 0 0 0 0 0 0 0 0 0 0 0 0 0 0
0 0 0 0 0 0 0 0 0 0 0 0 0 0 0 0 0 0 0 0 0 0 0 0 0 0 0 0 0 0 0 0 0 0 0 0 0 0 0 0 0 0 0 0
0 0 0 0 0 0 0 0 0 0 0 0 0 0 0 0 0 0 0 0 0 0 0 0 0 0 0 0 0 0 0 0 0 0 0 0 0 0 0 0 0 0 0 0
0 0 0 0 0 0 0 0 0 0 0 0 0 0 0 0 0 0 0 0 0 0 0 0 0 0 0 0 0 0 0 0 0 0 0 0 0 0 0 0 0 0 0 0
0 0 0 0 0 0 0 0 0 0 0 0 0 0 0 0 0 0 0 0 0 0 0 0 0 0 0 0 0 0 0 0 0 0 0 0 0 0 0 0 0 0 0 0
0 0 0 0 0 0 0 0 0 0 0 0 0 0 0 0 0 0 0 0 0 0 0 0 0 0 0 0 0 0 0 0 0 0 0 0 0 0 0 0 0 0 0 0
0 0 0 0 0 0 0 0 0 0 0 0 0 0 0 0 0 0 0 0 0 0 0 0 0 0 0 0 0 0 0 0 0 0 0 0 0 0 0 0 0 0 0 0
0 0 0 0 0 0 0 0 0 0 0 0 0 0 0 0 0 0 0 0 0 0 0 0 0 0 0 0 0 0 0 0 0 0 0 0 0 0 0 0 0 0 0 0
0 0 0 0 0 0 0 0 0 0 0 0 0 0 0 0 0 0 0 0 0 0 0 0 0 0 0 0 0 0 0 0 0 0 0 0 0 0 0 0 0 0 0 0
0 0 0 0 0 0 0 0 0 0 0 0 0 0 0 0 0 0 0 0 0 0 0 0 0 0 0 0 0 0 0 0 0 0 0 0 0 0 0 0 0 0 0 0
0 0 0 0 0 0 0 0 0 0 0 0 0 0 0 0 0 0 0 0 0 0 0 0 0 0 0 0 0 0 0 0 0 0 0 0 0 0 0 0 0 0 0 0
0 0 0 0 0 0 0 0 0 0 0 0 0 0 0 0 0 0 0 0 0 0 0 0 0 0 0 0 0 0 0 0 0 0 0 0 0 0 0 0 0 0 0 0
0 0 0 0 0 0 0 0 0 0 0 0 0 0 0 0 0 0 0 0 0 0 0 0 0 0 0 0 0 0 0 0 0 0 0 0 0 0 0 0 0 0 0 0
0 0 0 0 0 0 0 0 0 0 0 0 0 0 0 0 0 0 0 0 0 0 0 0 0 0 0 0 0 0 0 0 0 0 0 0 0 0 0 0 0 0 0 0
0 0 0 0 0 0 0 0 0 0 0 0 0 0 0 0 0 0 0 0 0 0 0 0 0 0 0 0 0 0 0 0 0 0 0 0 0 0 0 0 0 0 0 0
0 0 0 0 0 0 0 0 0 0 0 0 0 0 0 0 0 0 0 0 0 0 0 0 0 0 0 0 0 0 0 0 0 0 0 0 0 0 0 0 0 0 0 0
0 0 0 0 0 0 0 0 0 0 0 0 0 0 0 0 0 0 0 0 0 0 0 0 0 0 0 0 0 0 0 0 0 0 0 0 0 0 0 0 0 0 0 0
0 0 0 0 0 0 0 0 0 0 0 0 0 0 0 0 0 0 0 0 0 0 0 0 0 0 0 0 0 0 0 0 0 0 0 0 0 0 0 0 0 0 0 0
0 0 0 0 0 0 0 0 0 0 0 0 0 0 0 0 0 0 0 0 0 0 0 0 0 0 0 0 0 0 0 0 0 0 0 0 0 0 0 0 0 0 0 0
Wind_Speed
2 1 2 2 5 7 8 7 6 5 5 4 4 3 1 2 2 2 2 3 3 4 3 3 3 3 3 2 1 1 0 1 2 3 4 4 4 4 5 5 6 5 5 5
5 4 5 7 7 8 8 8 8 7 5 2 4 2 1 2 3 2 2 2 2 3 3 3 3 3 2 2 2 1 1 1 1 1 2 3 4 4 4 4 4 4 4 4
7 6 6 9 12 12 10 8 6 6 2 3 2 1 1 1 1 2 2 2 2 2 2 2 1 2 2 2 1 1 0 1 1 1 2 2 4 4 4 4 4 4 4 4
6 5 7 1 4 7 8 8 6 4 1 1 1 1 1 1 0 1 2 2 2 2 2 2 3 4 3 3 2 1 1 0 1 1 1 1 2 3 3 3 4 4 4 3
6 7 6 6 6 6 6 6 7 5 3 2 0 2 3 4 2 1 2 2 2 1 1 2 2 2 1 3 3 3 2 1 1 1 1 1 2 3 2 2 3 3 3 3
5 6 5 4 11 7 3 4 6 5 3 2 2 1 4 5 4 3 3 2 2 1 1 0 2 3 1 2 1 2 2 1 1 0 1 2 2 3 3 3 3 3 3 3
8 7 2 8 9 7 4 1 7 6 4 2 1 5 5 4 4 3 3 3 1 0 0 1 1 1 2 2 1 2 2 0 1 2 3 3 3 3 4 3 3 4 5 4
7 7 4 10 7 5 4 6 5 5 4 3 4 5 4 4 4 3 3 3 2 1 1 1 0 1 2 2 1 1 1 1 3 4 4 3 3 4 4 4 4 5 4 3
3 1 6 5 4 4 3 3 4 5 4 4 3 3 4 3 3 3 2 3 3 2 1 1 2 2 2 2 1 1 3 4 5 5 5 5 5 5 4 4 3 3 3 3
3 5 8 6 5 4 2 3 4 4 4 3 3 3 4 3 3 3 1 2 2 2 2 2 2 2 2 2 2 3 4 5 5 5 5 4 4 4 3 3 3 3 3 3
7 3 4 6 6 7 5 5 4 4 4 3 3 3 3 3 3 3 2 2 2 1 1 2 2 1 0 1 2 4 5 4 5 5 4 3 3 4 4 4 4 4 3 3
6 6 7 8 10 10 8 7 6 6 6 4 3 3 4 4 4 3 3 3 3 2 2 3 4 4 4 3 3 4 5 5 3 3 3 3 3 4 8 9 9 11 10 7
7 2 1 7 10 10 9 8 7 6 6 6 5 4 4 5 5 4 4 4 4 4 4 4 5 7 8 7 6 5 5 5 4 3 3 3 3 4 4 6 10 11 12 12
5 6 6 6 7 9 9 9 8 7 6 6 5 5 5 6 6 5 4 4 5 6 6 6 7 8 8 8 7 7 6 6 5 4 4 4 4 4 4 4 4 4 9 14
6 6 6 7 9 9 9 10 10 9 8 7 6 5 6 6 6 5 4 4 6 7 7 7 7 7 7 8 8 7 5 4 4 5 5 5 4 4 4 5 4 4 4 5
8 6 7 10 11 12 12 12 11 10 9 8 7 7 7 7 6 6 5 5 7 7 7 7 6 6 6 7 8 6 5 8 7 5 5 5 5 5 5 5 4 4 4 3
10 11 11 12 13 13 12 11 10 10 10 9 8 8 8 8 7 6 6 6 7 7 7 6 6 6 7 8 8 5 5 6 9 6 5 5 6 6 6 6 6 6 6 7
11 11 12 13 12 12 12 11 10 11 10 10 9 8 7 7 7 6 5 6 7 7 6 6 6 6 6 8 8 5 5 5 5 5 5 6 6 6 6 6 7 8 7 8
6 7 9 10 11 11 10 10 11 11 10 9 8 7 7 7 6 6 7 6 6 5 5 5 7 6 6 8 10 5 5 5 5 5 5 8 7 7 7 7 8 8 8 8
4 5 8 10 11 10 10 10 11 10 9 9 9 8 7 6 6 7 7 6 5 3 3 4 5 6 6 8 11 5 5 5 5 5 5 5 6 6 7 7 8 8 8 8
5 7 9 10 10 10 10 11 10 9 8 8 8 8 7 6 5 5 6 5 5 3 3 3 3 4 5 9 10 4 4 4 4 5 5 5 5 6 6 6 7 7 7 7
7 8 9 10 10 10 10 9 9 9 8 7 8 8 7 6 6 6 5 4 4 3 2 2 3 5 9 10 5 3 3 3 3 3 4 4 4 5 5 6 6 6 6 6
7 8 9 10 10 10 10 9 9 8 8 7 7 7 6 4 4 4 4 4 4 2 1 1 3 6 11 7 4 4 3 3 3 3 4 4 4 4 4 5 5 5 5 6
8 9 9 9 9 10 10 9 8 7 7 6 5 5 5 4 3 3 4 5 4 1 1 1 3 6 8 4 3 3 3 3 3 3 4 4 3 4 4 4 4 5 5 7
8 9 9 9 8 7 8 9 9 8 7 5 5 5 3 3 3 2 3 4 4 3 2 2 5 6 5 3 3 3 3 3 3 3 3 3 3 4 4 4 5 5 5 6
7 6 6 6 6 5 6 6 6 5 5 5 4 4 3 3 3 2 2 2 3 3 3 2 3 4 2 2 2 3 4 4 4 3 4 4 4 4 4 5 7 6 6 6
7 6 4 4 4 4 5 5 5 5 5 5 4 4 3 3 3 2 2 1 1 1 1 2 2 2 2 2 2 3 3 3 3 3 4 4 4 4 4 6 6 6 5 6
Wind_Direction
266 65 311 244 205 202 228 258 288 339 356 0 57 69 74 146 168 184 193 194 191 185 203 197 200 198 186 168 178 163 111 49 29 360 359 357 349 350 359 353 350 359 2 5
249 216 233 249 235 221 225 243 263 288 299 71 90 110 166 186 166 184 204 204 199 199 191 205 214 186 162 156 164 179 179 126 93 2 356 347 340 351 353 336 338 357 357 3
260 208 221 246 223 214 218 222 232 253 273 70 31 13 15 43 138 183 198 177 188 217 190 196 192 117 109 106 125 203 160 123 115 38 0 344 344 347 336 335 354 350 346 353
262 206 235 94 90 176 206 220 223 240 285 61 14 62 104 106 93 163 146 153 173 201 175 191 179 145 146 167 190 178 117 251 174 166 285 321 325 321 320 340 342 332 331 337
264 260 247 163 157 164 190 216 203 215 202 157 185 216 180 137 101 80 92 105 126 173 179 192 140 122 182 195 178 165 159 256 243 175 193 292 304 303 311 319 312 311 318 322
267 269 274 124 132 141 186 234 177 174 163 151 236 246 104 103 99 91 87 82 78 110 284 258 120 115 275 272 207 160 158 213 270 166 209 264 287 298 296 287 284 292 295 294
261 267 266 111 124 141 203 151 134 141 144 161 86 74 93 94 101 103 106 103 90 285 340 7 47 125 248 278 347 102 109 70 299 271 245 234 243 270 282 285 288 284 276 261
221 239 220 142 156 178 105 107 116 120 114 97 85 91 98 97 105 116 126 134 155 227 185 147 348 303 282 290 17 81 131 220 254 258 259 255 230 244 259 269 278 277 275 277
216 144 104 147 135 87 74 119 110 111 105 111 122 119 109 106 109 121 132 144 159 191 219 227 205 196 264 288 264 221 212 227 239 247 241 233 233 242 250 253 259 275 282 284
259 167 167 174 146 141 143 108 100 108 121 134 137 122 118 113 105 108 109 116 138 179 209 246 237 177 205 254 257 253 243 235 235 242 244 237 222 224 237 250 262 276 288 291
245 209 159 183 183 173 162 158 152 139 128 123 120 113 113 108 94 84 79 78 91 66 18 341 331 352 58 308 300 286 275 258 246 242 235 238 239 231 233 233 224 230 244 260
234 216 206 195 184 175 170 174 167 152 138 127 122 115 106 94 84 71 59 55 67 61 45 3 358 16 21 4 338 319 311 310 303 294 269 242 244 255 239 234 239 233 231 233
249 291 110 130 150 164 171 169 160 153 144 136 125 115 110 104 93 82 70 56 54 54 46 32 26 24 17 6 353 336 320 315 312 308 305 294 278 267 274 261 244 245 245 242
155 129 129 144 155 168 168 158 150 141 134 128 122 118 113 106 97 84 69 63 62 59 49 41 37 28 11 359 350 338 331 332 334 320 311 302 294 287 279 278 276 261 244 238
187 185 175 160 159 168 161 158 157 153 145 136 130 126 118 111 103 90 73 65 71 64 52 44 38 24 7 358 347 338 338 342 338 327 316 306 299 293 289 286 280 275 274 245
198 195 172 167 170 172 172 173 170 161 152 145 139 129 118 109 104 95 80 72 73 65 52 43 29 15 12 4 347 339 339 346 342 326 323 329 329 325 321 317 313 310 307 308
195 195 187 184 181 181 182 179 169 158 151 145 140 134 130 125 117 108 98 87 82 70 57 44 15 3 22 16 351 343 345 346 349 348 349 353 346 344 348 350 350 346 341 343
207 201 191 186 182 178 178 170 158 150 146 140 139 140 138 132 124 117 108 102 95 78 57 38 9 359 27 25 352 341 349 355 355 355 357 360 354 354 355 356 356 356 352 355
189 183 179 177 173 169 163 154 146 140 138 142 143 135 123 118 117 111 96 82 78 72 54 26 6 15 24 19 356 339 357 360 358 0 3 0 360 0 1 1 1 360 359 0
156 157 159 153 151 150 145 141 139 139 143 144 137 131 126 122 120 114 108 98 78 54 37 22 16 22 16 2 346 340 359 1 1 2 4 3 360 1 2 3 2 1 2 2
137 138 138 139 139 137 139 140 139 141 141 141 140 136 132 127 122 118 117 112 96 43 356 12 35 28 10 344 329 340 356 359 1 3 2 360 357 357 359 360 358 359 360 359
136 137 138 138 138 140 141 140 141 141 140 138 136 135 133 132 125 113 102 103 106 66 356 30 47 16 351 338 321 330 345 354 357 357 355 352 350 348 350 352 350 352 351 349
146 146 147 149 151 149 144 142 143 143 143 143 143 142 136 125 128 132 128 115 105 66 5 46 16 347 340 329 316 328 341 352 356 353 347 341 339 340 341 342 341 340 339 338
155 156 157 159 156 152 150 146 143 142 142 139 135 131 132 134 132 123 118 128 134 157 273 170 305 318 320 303 311 332 344 348 348 343 331 324 328 333 331 331 331 330 329 329
163 163 163 163 161 159 153 149 148 146 146 144 146 149 152 136 128 119 119 136 156 200 250 252 278 290 289 296 328 339 332 324 321 314 309 320 326 327 328 328 329 326 324 322
167 165 164 171 163 151 152 154 153 154 157 157 157 158 152 138 139 150 174 194 199 211 242 255 265 270 285 331 332 316 309 315 324 328 331 330 329 332 329 328 325 322 320 320
167 160 157 166 151 155 158 158 158 163 165 164 163 163 159 156 160 169 183 215 232 239 261 284 297 307 312 306 298 302 313 324 329 330 327 326 326 325 323 323 319 317 319 319